Hourly Data Report for March 21, 2021

KUGAARUK CLIMATE
NUNAVUT
Current Station Operator: ECCC - MSC

68°32'15.060" N
89°47'47.020" W
15.80 m
2303094
71407
NBB

Download Data

Hourly Data (March 2021)
Hourly Data Report for March 21, 2021
TIME
LST
Temp Definition
°C
Dew Point Definition
°C
Rel Hum Definition
%
Precip. Amount Definition
mm

Wind Dir Definition
10's deg

Wind Spd Definition
km/h
Visibility Definition
km
Stn Press Definition
kPa
Hmdx Definition


Wind Chill Definition


Weather Definition


00:00 -27.6 -30.6 76 0.0 27 2   100.94   -30 LegendNANA
01:00 -26.4 -29.5 75 0.0 2 4   100.93   -31 LegendNANA
02:00 -26.2 -29.7 72 0.0 9 4   100.95   -30 LegendNANA
03:00 -27.2 -30.7 72 0.0 2 8   101.01   -35 LegendNANA
04:00 -28.1 -31.1 75 0.0 10 9   101.03   -36 LegendNANA
05:00 -29.2 -32.0 76 0.0 5 9   101.07   -38 LegendNANA
06:00 -30.1 -33.7 71 0.0 8 8   101.09   -38 LegendNANA
07:00 -30.5 -34.2 71 0.0 9 12   101.13   -41 LegendNANA
08:00 -30.8 -34.8 68 0.0 7 7   101.19   -38 LegendNANA
09:00 -30.1 -34.4 66 0.0 7 8   101.23   -38 LegendNANA
10:00 -29.2 -34.1 62 0.0 7 4   101.29   -34 LegendNANA
11:00 -28.6 -33.9 60 0.0 15 4   101.30   -33 LegendNANA
12:00 -28.1 -33.7 59 0.0 33 6   101.36   -34 LegendNANA
13:00 -28.1 -33.7 59 0.0 34 8   101.41   -36 LegendNANA
14:00 -28.5 -33.6 61 0.0 33 10   101.46   -37 LegendNANA
15:00 -28.1 -33.5 60 0.0 30 6   101.50   -34 LegendNANA
16:00 -28.3 -33.3 62 0.0 30 11   101.52   -38 LegendNANA
17:00 -29.5 -33.7 67 0.0 26 17   101.54   -42 LegendNANA
18:00 -31.3 -35.2 68 0.0 24 17   101.58   -44 LegendNANA
19:00 -30.5 -35.0 65 0.0 23 19   101.57   -43 LegendNANA
20:00 -30.6 -35.4 63 0.0 23 21   101.56   -44 LegendNANA
21:00 -30.6 -35.3 63 0.0 25 20   101.57   -44 LegendNANA
22:00 -30.8 -35.6 63 0.0 23 22   101.58   -45 LegendNANA
23:00 -31.6 -36.2 64 0.0 23 26   101.57   -47 LegendNANA

Notes on Data Quality.

Legend

  • E = Estimated
  • M = Missing
  • NA = Not Available*
  • [empty] = Indicates an unobserved value
Date modified: